Location: San Pelegr�n
(42.1868°N, 0.0079°E)
Time: 03:45:57
(UTC+00:00)

Shenzhou-11 Module - Pass Details

Date: 24 January 2020
Orbit: 298 x 313 km, 42.8° (Epoch: 17 February)

Event Time Altitude Azimuth Distance (km) Brightness Sun altitude
Rises 18:44:28 0° 267° (W) 2,028 7.4 -18.6°
Reaches altitude 10° 18:46:27 10° 268° (W) 1,197 5.8 -19.0°
Enters shadow 18:48:34 50° 281° (WNW) 399 2.5 -19.4°
